Regional Weather Roundup
Issued by NWS Goodland, KS

Home | Current Version | Previous Version | Text Only | Print | Product List | Glossary Off
Versions: 1 2 3 4 5 6 7 8 9 10 11 12 13 14 15 16 17 18 19 20 21 22 23 24 25 26 27 28 29 30 31 32 33 34 35 36 37 38 39 40 41 42 43 44 45 46 47 48 49 50

000
ASUS43 KGLD 251608
RWRGLD

GOODLAND FORECAST AREA HOURLY WEATHER ROUNDUP
NATIONAL WEATHER SERVICE GOODLAND KS
1000 AM MDT SUN SEP 25 2016

...OFFICIAL OBSERVATIONS...

CITY           SKY/WX    TMP DP  RH WIND       PRES   REMARKS
GOODLAND KS    SUNNY     61  37  41 N23G31    30.38R
HILL CITY KS   SUNNY     65  45  48 N17G24    30.32R
IMPERIAL NEB   SUNNY     62  35  36 NW28G40   30.35F
MCCOOK NEB     SUNNY     65  41  41 NW22G28   30.32R
AKRON CO       MOSUNNY   56  36  47 N23       30.45R
BURLINGTON CO  SUNNY     59  34  39 N20G28    30.41R
LIMON CO       SUNNY     56  32  40 N22G28    30.47S
$$

...UNOFFICIAL OBSERVATIONS...

CITY           SKY/WX    TMP DP  RH WIND       PRES   REMARKS
COLBY KS       SUNNY     64  45  48 NW14G21   30.37S
LENORA KS        N/A     63  32  31 MISG        N/A
NORTON KS      SUNNY     66  37  34 NW18G24   30.30S
SHARON SPRINGS   N/A     61  40  45 NW18G26     N/A
TRIBUNE KS     SUNNY     64  39  39 N24G32    30.40R
KIT CARSON CO    N/A     58  38  48 MISG        N/A
$$




USA.gov is the U.S. government's official web portal to all federal, state and local government web resources and services.